EHI
0 0 1 3 5 9 11 15 18 18 17 14 8 3 0 0 0 0 0 0 0 0 0 0 0 0 0 0 0 0 0 0 0 0 0 0 0 0 0 0 0 0 0
0 0 1 3 6 9 10 13 16 18 17 16 11 5 1 1 1 0 0 0 0 0 0 0 0 0 0 0 0 0 0 0 0 0 0 0 0 0 0 0 0 0 0
0 0 0 2 5 7 8 10 13 16 17 18 15 9 4 3 2 1 0 0 0 0 0 0 0 0 0 0 0 0 0 0 0 0 0 0 0 0 0 0 0 0 0
0 0 0 1 3 5 6 9 13 15 15 17 17 12 7 4 3 2 1 0 0 0 0 0 0 0 0 0 0 0 0 0 0 0 0 0 0 0 0 0 0 0 0
0 0 0 0 1 3 5 8 12 14 14 16 17 14 10 6 3 2 1 0 0 0 0 0 0 0 0 0 0 0 0 0 0 0 0 0 0 0 0 0 0 0 0
0 0 0 0 1 2 4 8 12 13 13 15 16 14 11 7 3 1 0 0 0 0 0 0 0 0 0 0 0 0 0 0 0 0 0 0 0 0 0 0 0 0 0
0 0 0 0 0 1 3 8 12 12 13 15 14 13 12 8 4 1 0 0 0 0 0 0 0 0 0 0 0 0 0 0 0 0 0 0 0 0 0 0 0 0 0
0 0 0 0 0 0 2 6 10 11 11 12 12 10 10 9 6 2 0 0 0 0 0 0 0 0 0 0 0 0 0 0 0 0 0 0 0 0 0 0 0 0 0
0 0 0 0 0 0 1 4 7 7 6 7 7 6 5 6 5 2 0 0 0 0 0 0 0 0 0 0 0 0 0 0 0 0 0 0 0 0 0 0 0 0 0
0 0 0 0 0 0 1 2 3 2 2 2 3 2 1 2 3 2 1 0 0 0 1 1 0 0 0 0 0 0 0 0 0 0 0 0 0 0 0 0 0 0 0
0 0 0 0 0 0 0 1 1 0 0 0 1 1 0 0 1 2 1 0 0 0 1 1 0 0 0 0 0 0 0 0 0 0 0 0 0 0 0 0 0 0 0
0 0 0 0 0 0 0 0 0 0 0 0 0 0 0 0 0 1 1 0 0 0 1 1 0 0 0 0 0 0 0 0 0 0 0 0 0 0 0 0 0 0 0
0 0 0 0 0 0 0 0 0 0 0 0 0 0 0 0 0 0 0 0 0 0 0 0 0 0 0 0 0 0 0 0 0 0 0 0 0 0 0 0 0 0 0
0 0 0 0 0 0 0 0 0 0 0 0 0 0 0 0 0 0 0 0 0 0 0 0 0 0 0 0 0 0 0 0 0 0 0 0 0 0 0 0 0 0 0
0 0 0 0 0 0 0 0 0 0 0 0 0 0 0 0 0 0 0 0 0 0 0 0 0 0 0 0 0 0 0 0 0 0 0 0 0 0 0 0 0 0 0
0 0 0 0 0 0 0 0 0 0 0 0 0 0 0 0 0 0 0 0 0 0 0 0 0 0 0 0 0 0 0 0 0 0 0 0 0 0 0 0 0 0 0
0 0 0 0 0 0 0 0 0 0 0 0 0 0 0 0 0 0 0 0 0 0 0 0 0 0 0 0 0 0 0 0 0 0 0 0 0 0 0 0 0 0 0
0 0 0 0 0 0 0 0 0 0 0 0 0 0 0 0 0 0 0 0 0 0 0 0 0 0 0 0 0 0 0 0 0 0 0 0 0 0 0 0 0 0 0
0 0 0 0 0 0 0 0 0 0 0 0 0 0 0 0 0 0 0 0 0 0 0 0 0 0 0 0 0 0 0 0 0 0 0 0 0 0 0 0 0 0 0
0 0 0 0 0 0 0 0 0 0 0 0 0 0 0 0 0 0 0 0 0 0 0 0 0 0 0 0 0 0 0 0 0 0 0 0 0 0 0 0 0 0 0
0 0 0 0 0 0 0 0 0 0 0 0 0 0 0 0 0 0 0 0 0 0 0 0 0 0 0 0 0 0 0 0 0 0 0 0 0 0 0 0 0 0 0
0 0 0 0 0 0 0 0 0 0 0 0 0 0 0 0 0 0 0 0 0 0 0 0 0 0 0 0 0 0 0 0 0 0 0 0 0 0 0 0 0 0 0
0 0 0 0 0 0 0 0 0 0 0 0 0 0 0 0 0 0 0 0 0 0 0 0 0 0 0 0 0 0 0 0 0 0 0 0 0 0 0 0 0 0 0
0 0 0 0 0 0 0 0 0 0 0 0 0 0 0 0 0 0 0 0 0 0 0 0 0 0 0 0 0 0 0 0 0 0 0 0 0 0 0 0 0 0 0
0 0 0 0 0 0 0 0 0 0 0 0 0 0 0 0 0 0 0 0 0 0 0 0 0 0 0 0 0 0 0 0 0 0 0 0 0 0 0 0 0 0 0
0 0 0 0 0 0 0 0 0 0 0 0 0 0 0 0 0 0 0 0 0 0 0 0 0 0 0 0 0 0 0 0 0 0 0 0 0 0 0 0 0 0 0
Wind_Speed
8 7 7 7 7 8 10 11 11 10 9 7 7 6 6 5 5 5 6 7 6 7 6 4 4 4 4 4 4 3 2 2 1 0 2 3 3 3 3 2 1 0 1
8 7 7 7 8 9 10 10 11 11 10 8 7 5 5 4 4 5 6 6 6 6 6 6 5 4 3 4 3 3 2 2 2 2 1 2 3 2 2 1 0 0 1
12 10 9 9 8 10 11 10 11 10 10 8 5 4 3 2 3 4 4 5 6 6 5 6 5 4 4 4 4 3 4 3 2 2 3 2 3 2 2 2 1 1 2
10 10 10 9 10 10 9 10 10 10 9 9 8 9 7 6 6 5 4 4 5 6 5 5 5 4 3 3 3 3 3 3 3 2 3 3 3 2 2 1 1 2 2
10 10 10 11 10 8 8 8 9 9 9 9 10 10 7 5 4 4 5 5 4 4 5 5 4 4 3 3 3 3 3 3 3 3 2 2 2 3 3 3 1 1 1
10 9 8 7 6 6 6 7 8 8 8 9 9 10 9 8 7 6 6 5 3 3 4 5 4 4 3 3 3 3 3 3 3 2 2 2 2 3 3 4 3 2 1
8 8 8 7 7 7 7 7 8 7 8 9 9 9 9 9 9 8 7 6 4 3 4 4 4 3 3 3 3 2 2 3 3 3 2 2 2 1 2 3 2 2 2
6 7 8 9 8 8 7 7 8 7 7 8 8 7 7 6 5 6 6 6 4 4 4 4 4 4 3 3 3 2 2 2 2 2 2 2 2 2 2 2 2 2 2
4 5 4 5 7 8 7 8 8 6 6 6 6 6 7 6 6 5 5 4 4 4 5 4 4 4 3 3 3 2 2 2 2 2 2 2 1 2 2 2 3 3 3
2 2 3 3 4 5 5 6 6 6 5 5 5 5 5 6 6 6 6 5 5 5 5 4 4 3 3 2 2 2 1 2 1 1 2 1 1 1 1 2 2 3 3
2 2 2 2 3 3 4 5 5 5 5 5 5 5 5 5 6 6 6 6 5 5 5 5 4 3 3 2 2 2 1 1 1 1 1 1 0 1 1 1 1 2 2
1 1 2 3 3 3 4 5 5 5 5 5 6 6 5 6 6 6 5 5 6 5 4 4 4 3 3 3 2 2 2 2 2 1 1 1 0 0 0 0 1 1 1
1 1 1 2 2 3 3 4 5 6 5 6 7 6 6 6 6 6 6 6 5 5 4 4 4 3 3 2 2 2 2 1 1 1 1 1 1 0 0 0 0 0 0
1 1 1 1 2 3 4 4 5 5 6 6 7 7 6 6 6 6 6 6 5 5 5 4 3 3 3 2 2 2 2 2 2 1 1 1 1 1 1 0 0 0 1
2 2 2 3 2 3 3 4 5 5 6 7 6 6 6 6 6 6 6 6 5 5 4 4 3 3 2 2 2 2 2 2 2 2 1 1 2 2 2 1 1 1 2
3 3 3 3 4 4 5 5 5 6 6 7 6 6 6 6 6 6 6 5 5 4 4 4 3 2 1 3 4 3 3 3 3 2 2 2 3 3 4 4 3 3 3
4 4 4 5 5 5 6 7 6 6 7 7 7 7 7 7 6 6 6 5 5 4 4 3 3 3 2 4 4 5 3 3 3 3 2 1 2 4 4 5 7 5 3
4 4 3 4 4 4 4 5 5 7 7 7 7 7 7 7 6 6 6 5 4 4 3 3 3 3 2 4 4 5 3 2 2 3 3 3 2 2 4 4 4 4 4
5 4 4 3 2 3 4 5 5 6 7 8 8 8 8 8 7 7 6 4 4 4 3 3 3 3 3 4 5 6 3 2 2 2 3 3 2 5 6 4 4 3 3
5 4 3 1 1 2 4 6 6 6 8 8 7 7 8 8 8 7 5 4 4 4 4 3 3 4 3 5 7 7 3 3 2 2 2 5 5 5 6 4 4 3 1
5 4 2 2 1 1 3 5 5 7 6 6 6 6 7 7 6 6 4 5 4 4 3 3 3 3 5 6 8 8 3 4 3 3 2 3 7 6 6 6 4 5 4
5 4 3 3 2 1 3 3 4 3 4 5 6 6 6 6 6 6 5 5 5 5 4 3 3 3 4 6 7 10 9 7 4 4 3 4 7 7 6 5 6 7 6
5 4 3 2 3 2 2 2 2 3 4 5 5 5 6 5 6 6 6 5 5 4 4 4 4 3 3 5 10 10 10 11 5 4 7 8 9 7 5 6 7 5 4
4 3 3 3 3 3 2 1 2 3 5 5 5 5 5 5 5 5 5 5 5 5 5 5 5 4 3 4 4 4 4 7 6 4 6 9 8 5 5 5 4 3 4
3 2 2 2 2 2 2 2 1 3 4 4 4 4 4 5 5 4 5 6 5 6 6 5 5 5 5 8 11 6 5 4 4 4 2 2 2 3 2 2 2 3 3
2 2 2 2 2 2 2 2 1 2 3 3 3 3 3 3 3 3 3 6 7 10 12 10 8 7 9 9 12 14 13 13 12 7 4 4 5 5 5 5 4 4 4
Wind_Direction
245 240 218 194 183 180 180 182 180 180 174 172 173 173 177 175 173 176 177 177 175 173 172 178 181 181 186 193 190 180 189 209 174 167 303 301 284 275 273 264 256 234 188
234 228 226 203 189 184 183 185 184 181 179 180 179 173 166 171 176 174 176 178 176 175 177 179 181 183 183 187 187 176 177 205 177 168 207 305 321 327 335 340 242 217 95
220 215 215 211 196 190 186 186 188 186 183 179 161 138 124 128 160 177 180 184 178 176 175 179 176 176 178 189 193 185 184 204 214 190 180 201 244 295 332 17 25 49 69
216 210 208 208 202 200 191 183 183 184 182 175 172 170 175 183 189 181 177 175 174 172 173 172 171 169 170 180 193 188 187 186 211 224 223 216 197 215 276 324 24 48 51
212 209 207 203 201 195 189 184 177 180 179 177 178 180 184 186 165 157 163 171 167 166 166 163 162 163 166 175 187 191 195 200 206 207 212 226 226 220 220 246 234 58 41
215 211 207 197 194 189 186 180 175 178 178 177 179 182 183 174 162 169 174 171 162 159 161 153 154 159 160 165 182 191 196 207 213 215 211 203 209 213 213 229 219 208 156
210 205 197 191 187 183 182 178 176 178 178 178 180 184 184 181 179 180 179 171 170 176 180 161 160 160 164 160 161 183 203 206 208 214 220 223 227 215 217 228 226 210 173
206 202 197 190 187 185 179 174 174 174 175 175 178 178 178 178 182 178 171 172 174 173 164 158 157 157 155 154 159 179 196 195 207 216 213 219 232 224 221 220 212 228 205
194 195 191 186 184 182 180 175 171 167 170 172 165 164 164 161 161 157 152 152 153 150 148 148 152 153 151 151 155 170 184 183 205 213 209 216 227 229 232 228 216 217 226
149 170 179 182 179 175 169 163 161 160 157 156 157 156 156 155 153 148 153 152 148 142 142 142 141 137 132 133 135 142 156 165 202 212 206 211 222 232 236 233 233 222 219
157 169 166 153 142 140 146 149 152 147 146 147 141 138 140 139 138 142 148 147 140 142 144 143 139 137 135 132 131 139 154 180 204 211 201 216 226 244 261 249 230 219 200
141 143 141 136 135 140 149 152 150 145 145 140 133 132 131 130 130 130 131 131 129 129 132 129 129 134 133 129 139 153 164 185 202 209 184 206 94 1 333 284 242 220 195
95 91 109 140 154 154 153 157 157 152 143 136 132 129 128 129 130 128 122 117 116 113 112 118 128 132 126 120 128 146 147 154 161 157 169 178 155 203 287 307 275 245 136
239 193 192 197 186 174 164 160 160 154 146 141 140 139 140 136 130 125 121 117 117 115 111 111 116 115 112 116 122 130 128 121 107 101 114 135 159 185 187 168 177 129 118
276 234 218 216 203 189 180 169 165 158 150 146 146 148 138 131 126 124 123 119 118 120 120 119 112 107 116 137 146 143 140 132 112 91 83 92 117 139 149 147 163 151 142
271 249 229 213 207 199 191 182 175 167 154 153 154 146 139 137 135 134 130 124 122 122 123 127 129 139 155 168 166 154 145 145 144 137 103 81 75 87 89 95 115 151 161
283 262 242 226 217 208 194 189 183 166 157 158 155 152 149 147 147 144 139 140 141 139 139 143 147 157 173 178 175 167 148 154 158 156 148 128 104 84 73 70 61 55 80
303 290 274 252 233 213 195 180 166 163 163 162 161 159 155 154 151 149 153 152 147 150 154 159 158 159 185 184 172 160 138 147 161 165 161 152 141 139 123 99 74 54 42
301 286 274 261 237 209 187 162 164 165 166 172 172 169 164 160 160 165 166 159 152 155 161 163 167 173 191 188 176 156 140 150 162 168 169 168 178 179 153 129 114 85 50
323 315 311 310 244 212 166 159 169 172 184 184 177 169 165 166 172 173 164 156 155 163 163 171 183 186 196 202 193 172 155 163 169 172 186 193 194 198 176 154 151 151 146
335 344 355 357 313 212 155 166 174 191 190 168 158 162 168 169 168 164 159 155 155 159 169 182 196 199 205 210 206 192 171 179 179 186 197 219 210 208 197 181 179 192 169
347 355 6 3 0 58 141 164 190 186 150 149 157 164 164 164 162 160 162 161 162 170 182 190 206 215 215 215 218 213 204 194 186 196 201 216 218 214 209 198 198 193 162
344 351 6 9 10 24 104 153 178 143 143 148 159 161 161 163 163 166 168 169 176 185 192 196 209 216 213 222 224 223 217 208 195 201 208 213 219 217 215 213 204 183 152
341 348 9 16 7 10 36 98 139 143 146 156 162 163 166 169 171 173 176 182 189 196 200 205 213 214 212 216 218 218 221 218 208 200 216 218 219 210 207 218 215 178 176
336 354 7 5 357 10 26 38 100 134 142 152 161 168 174 176 180 187 194 199 205 202 203 207 204 204 218 222 214 203 204 193 193 172 170 178 186 199 199 204 206 196 195
339 357 4 6 6 24 27 23 58 131 146 157 171 177 180 182 183 191 213 223 221 227 229 226 218 222 228 232 225 221 220 216 208 195 196 204 208 213 215 215 214 210 210